YAOGAN-22

Last updated on Thu Oct 30 2025 00:02:31 GMT+0000 (Coordinated Universal Time)

1 40275U 14063A 25302.36992376 .00000007 00000+0 14248-3 0 9997 2 40275 100.7391 85.1709 0006192 354.5081 5.5961 13.15519458529469
UTC large
Height (km)
Speed (km/s)
/
Latitude / Longitude
Inclination (degrees)
Orbital Period (minutes)
Azimuth
Elevation
Range (km)
Doppler Factor

Next 0 passes for location: London (51.5072 / 0.1276)

Sorry there are no passes over London.